Location: Auckland
(36.8670°S, 174.7670°E)
Time: 03:55:46
(UTC+13:00)

ISS - Visible Passes

Search period start: 08 October 2022 00:00
Search period end: 18 October 2022 00:00
Orbit: 415 x 419 km, 51.6° (Epoch: 07 October)

Date Brightness Start Highest point End Pass type
(mag) Time Alt. Az. Time Alt. Az. Time Alt. Az.
08 Oct -0.7 05:08:36 10° S 05:10:01 12° SSE 05:11:24 10° SE visible
09 Oct -2.0 05:55:57 10° SSW 05:59:06 33° SE 06:02:13 10° E visible
10 Oct -1.3 05:08:00 10° SSW 05:10:45 22° SSE 05:13:27 10° E visible
11 Oct -0.9 04:21:25 14° S 04:22:17 16° SSE 04:24:26 10° ESE visible
11 Oct -3.8 05:56:00 10° SW 05:59:26 83° NW 06:02:48 10° NE visible
12 Oct -3.0 05:08:44 17° SW 05:11:08 53° SE 05:14:27 10° ENE visible
13 Oct -1.7 04:23:25 29° ESE 04:23:25 29° ESE 04:25:50 10° E visible
13 Oct -2.6 05:56:35 10° WSW 05:59:25 25° NW 06:02:14 10° N visible
13 Oct -2.0 21:00:41 10° NNW 21:01:59 20° N 21:01:59 20° N visible
14 Oct -3.4 05:11:33 44° NNW 05:11:33 44° NNW 05:14:26 10° NNE visible
14 Oct -2.2 20:13:09 10° N 20:15:31 18° NE 20:17:40 11° E visible
14 Oct -1.7 21:48:49 10° WNW 21:50:42 27° W 21:50:42 27° W visible
15 Oct -3.6 21:00:15 10° NW 21:03:38 74° SW 21:05:57 19° SE visible
16 Oct -3.7 20:11:57 10° NW 20:15:16 58° NE 20:18:38 10° ESE visible
16 Oct -1.0 21:49:46 10° WSW 21:52:15 19° SSW 21:53:43 15° S visible
17 Oct -1.6 21:00:42 10° W 21:03:40 27° SSW 21:06:39 10° SSE visible
